TimeGMT,TemperatureF,Dew PointF,Humidity,Sea Level PressureIn,VisibilityMPH,Wind Direction,Wind SpeedMPH,Gust SpeedMPH,PrecipitationIn,Events,Conditions,WindDirDegrees,DateUTC
12:20 AM,35.6,33.8,93,30.06,6.2,WSW,5.8,-,N/A,,Mostly Cloudy,250,2013-02-08 00:20:00
12:50 AM,35.6,33.8,93,30.06,6.2,WSW,4.6,-,N/A,,Mostly Cloudy,240,2013-02-08 00:50:00
1:20 AM,33.8,33.8,100,30.06,6.2,WSW,6.9,-,N/A,,Mostly Cloudy,250,2013-02-08 01:20:00
1:50 AM,33.8,33.8,100,30.06,6.2,WSW,8.1,-,N/A,,Mostly Cloudy,250,2013-02-08 01:50:00
2:20 AM,33.8,33.8,100,30.06,6.2,WSW,6.9,-,N/A,,Scattered Clouds,250,2013-02-08 02:20:00
2:50 AM,35.6,33.8,93,30.06,6.2,WSW,4.6,-,N/A,,Mostly Cloudy,250,2013-02-08 02:50:00
3:20 AM,35.6,33.8,93,30.06,6.2,Variable,2.3,-,N/A,,Partly Cloudy,0,2013-02-08 03:20:00
3:50 AM,33.8,33.8,100,30.06,6.2,Variable,3.5,-,N/A,,Partly Cloudy,0,2013-02-08 03:50:00
4:20 AM,33.8,32.0,93,30.06,6.2,West,3.5,-,N/A,,Unknown,270,2013-02-08 04:20:00
4:50 AM,32.0,30.2,93,30.06,6.2,WSW,4.6,-,N/A,,Unknown,240,2013-02-08 04:50:00
5:20 AM,32.0,30.2,93,30.09,6.2,Calm,Calm,-,N/A,,Partly Cloudy,0,2013-02-08 05:20:00
5:50 AM,32.0,30.2,93,30.09,6.2,WSW,5.8,-,N/A,,Partly Cloudy,250,2013-02-08 05:50:00
6:20 AM,33.8,32.0,93,30.09,-9999.0,WSW,4.6,-,N/A,,Clear,240,2013-02-08 06:20:00
6:50 AM,32.0,32.0,100,30.09,-9999.0,SSW,3.5,-,N/A,,Clear,210,2013-02-08 06:50:00
7:20 AM,33.8,32.0,93,30.09,-9999.0,WSW,6.9,-,N/A,,Clear,250,2013-02-08 07:20:00
7:50 AM,33.8,32.0,93,30.12,-9999.0,WSW,6.9,-,N/A,,Clear,250,2013-02-08 07:50:00
8:20 AM,33.8,32.0,93,30.12,-9999.0,WSW,5.8,-,N/A,,Clear,250,2013-02-08 08:20:00
8:50 AM,33.8,32.0,93,30.12,-9999.0,WSW,8.1,-,N/A,,Clear,240,2013-02-08 08:50:00
9:20 AM,39.2,32.0,75,30.12,-9999.0,West,8.1,-,N/A,,Clear,270,2013-02-08 09:20:00
9:50 AM,39.2,32.0,75,30.15,6.2,West,8.1,-,N/A,,Scattered Clouds,280,2013-02-08 09:50:00
10:20 AM,41.0,32.0,70,30.15,6.2,West,8.1,-,N/A,,Mostly Cloudy,280,2013-02-08 10:20:00
10:50 AM,42.8,32.0,66,30.15,-9999.0,West,9.2,-,N/A,,Clear,280,2013-02-08 10:50:00
11:20 AM,42.8,32.0,66,30.15,6.2,WNW,9.2,-,N/A,,Partly Cloudy,290,2013-02-08 11:20:00
11:50 AM,42.8,33.8,70,30.15,-9999.0,WNW,9.2,-,N/A,,Clear,290,2013-02-08 11:50:00
12:20 PM,42.8,32.0,66,30.15,-9999.0,WNW,10.4,-,N/A,,Clear,290,2013-02-08 12:20:00
12:50 PM,42.8,32.0,66,30.15,6.2,West,9.2,-,N/A,,Partly Cloudy,270,2013-02-08 12:50:00
1:20 PM,42.8,32.0,66,30.15,-9999.0,West,8.1,-,N/A,,Clear,280,2013-02-08 13:20:00
1:50 PM,42.8,32.0,66,30.15,-9999.0,West,8.1,-,N/A,,Clear,270,2013-02-08 13:50:00
2:20 PM,42.8,32.0,66,30.15,-9999.0,West,8.1,-,N/A,,Clear,270,2013-02-08 14:20:00
2:50 PM,42.8,30.2,61,30.15,-9999.0,West,8.1,-,N/A,,Clear,280,2013-02-08 14:50:00
3:20 PM,42.8,32.0,66,30.15,-9999.0,West,6.9,-,N/A,,Clear,270,2013-02-08 15:20:00
3:50 PM,42.8,32.0,66,30.15,-9999.0,West,8.1,-,N/A,,Clear,260,2013-02-08 15:50:00
4:20 PM,42.8,33.8,70,30.12,-9999.0,West,8.1,-,N/A,,Clear,270,2013-02-08 16:20:00
4:50 PM,42.8,33.8,70,30.12,-9999.0,West,5.8,-,N/A,,Clear,270,2013-02-08 16:50:00
5:20 PM,41.0,33.8,76,30.15,6.2,WSW,5.8,-,N/A,,Scattered Clouds,240,2013-02-08 17:20:00
5:50 PM,41.0,33.8,76,30.15,6.2,WSW,4.6,-,N/A,Rain,Light Rain,250,2013-02-08 17:50:00
6:20 PM,41.0,33.8,76,30.15,6.2,West,3.5,-,N/A,Rain,Light Rain,260,2013-02-08 18:20:00
6:50 PM,41.0,35.6,81,30.15,6.2,West,5.8,-,N/A,Rain,Light Rain,260,2013-02-08 18:50:00
7:20 PM,39.2,35.6,87,30.15,6.2,WSW,5.8,-,N/A,Rain,Light Rain,240,2013-02-08 19:20:00
7:50 PM,39.2,35.6,87,30.15,6.2,WSW,4.6,-,N/A,Rain,Light Rain,250,2013-02-08 19:50:00
8:20 PM,39.2,37.4,93,30.15,6.2,WSW,4.6,-,N/A,Rain,Light Rain,250,2013-02-08 20:20:00
8:50 PM,39.2,37.4,93,30.15,6.2,WSW,5.8,-,N/A,Rain,Light Rain,240,2013-02-08 20:50:00
9:20 PM,39.2,37.4,93,30.12,6.2,West,4.6,-,N/A,Rain,Light Rain,260,2013-02-08 21:20:00
9:50 PM,39.2,37.4,93,30.12,6.2,WSW,4.6,-,N/A,Rain,Light Rain,240,2013-02-08 21:50:00
10:20 PM,39.2,37.4,93,30.12,6.2,WSW,4.6,-,N/A,Rain,Light Rain,240,2013-02-08 22:20:00
10:50 PM,39.2,37.4,93,30.12,5.0,SW,2.3,-,N/A,Rain,Light Rain,230,2013-02-08 22:50:00
11:20 PM,37.4,37.4,100,30.12,5.0,WSW,4.6,-,N/A,Rain,Light Rain,240,2013-02-08 23:20:00
11:50 PM,39.2,37.4,93,30.12,5.6,WSW,4.6,-,N/A,Rain,Light Rain,240,2013-02-08 23:50:00